DECAYED

NOAA 16 DEB, 41274 (Decayed)

Orbit data source: Space-Track

NOAA 16 DEB, 41274 was space debris in SSO originally from a launch on Thu, 21 Sep 2000 UTC launched from the Air Force Western Test Range (AFWTR). Debris objects in space refer to the collection of defunct objects orbiting the Earth. Examples of debris include non-operational satellites, rocket bodies, and fragments generated from explosions, collisions, or faulty payload assembly.

Not visible in the next 10 days
Identifier
41274, 2000-055GA
Orbit
Decayed
Country
Flag of USUS
Related business
Manufacturer
Unknown
Mission
Decayed spacecraft
Bus & Motor
Unknown
Mass
Unknown
Launch date (UTC)
Icon of a cake. It is the launch day of the satellite!2000-09-21 (26 years ago)
Launch vehicle
Unknown
Launch site
Air Force Western Test Range (AFWTR)
Object type
Payload
Rocket body
Debris
Shape & HBR
Unknown shape, 0.1 m
Radar Cross Section
Medium (>0.1 m² and <1 m²)

Expand to show TLE details & history
Last TLE update: 1 year ago

TLE from 1 year ago
0 NOAA 16 DEB
1 41274U 00055GA  25105.03034145  .00552457  00000-0  17397-1 0  9997
2 41274  98.8034 291.3962 0016453 252.1437 107.8005 15.30451996487549
Epoch: 2025-04-15T00:43Z
TLE epoch observation values (Epoch: 2025-04-15T00:43:41.501Z)
Latitude
-0.00002°
Longitude
77.03648°
Altitude
480.988 km
Speed
7.623 km/s
True Right ascension
19h 25m 35s
True Declination
0° 00' 00"
Sunlit
Object was in daylight at epoch
Visualization orbit readout
Latitude
Unknown
Longitude
Unknown
Altitude
Unknown
Speed
Unknown
Apparent Right ascension
Unknown
Apparent Declination
Unknown
Sunlit
N/A
Visualization observer readout
Local Sidereal Time
00:08:11
Azimuth
Unknown
Elevation
Unknown
Doppler factor
Unknown
Orbital elements
Apogee altitude
482.75 km
Perigee altitude
460.211 km
Semi-major axis
6,849.617 km
Eccentricity
0.00165
Inclination
98.8034°
RAAN
291.3962°
Arg. of periapsis
252.1437°
True anomaly
107.9799°
Mean anomaly
107.8005°
Eccentric anomaly
107.89021°
Mean motion
3.82863 °/min
Orbital period
94.03 mins
BSTAR
0.017397
Loading maneuver chart data...
Computing Atmospheric mass density...

Documentation

Showing up to 5 results
|